Kosmos-2571 subsat

operational
NORAD ID: 58428 Int'l Des: 2023-165 Owner: VVKOV Country: RU
LEOCIRCULAR

About Kosmos-2571 subsat

Description loading...

Live Position

Loading 3D Globe...

Upcoming Passes

Altitude History

Altitude vs Time

uPlot chart will show altitude changes over time

Two-Line Element Set

1 58428U 23165D 26022.40997074 .00000136 00000-0 15052-3 0 9992
2 58428 67.1488 281.9017 0007824 81.7257 278.4714 13.97396763110461
Epoch: Jan 22, 2026 • Age: 20 hours

Current Status

Altitude 909.8 km
Velocity 7.40 km/s
Sub-Earth Point -13.23°S, 101.93°W
Launch Date Oct 27, 2023
Age 2.2 years
Type other

Technical Details

Classification Payload
Mass 10.00 kg
Dry Mass 10.00 kg
Total Mass 10.00 kg
Length 0.30 m
Diameter 0.20 m
Span 0.30 m
Shape Box
Manufacturer TSSKBP/ARSLO
Bus Type Unk
Phase Status In Orbit
Owner/State VVKOV/RU

Large Constellations

Loading constellations...